Regional Weather Roundup
Issued by NWS

Home | Current Version | Previous Version | Graphics & Text | Print | Product List | Glossary Off
Versions: 1 2 3 4 5 6 7 8 9 10 11 12 13 14 15 16 17 18 19 20 21 22 23 24 25 26 27 28 29 30 31 32 33 34 35 36 37 38 39 40 41 42 43 44 45 46 47 48 49 50

930
ASUS43 KMPX 230601
RWRMN
WEATHER ROUNDUP FOR MINNESOTA
NATIONAL WEATHER SERVICE TWIN CITIES/CHANHASSEN MN
100 AM CDT WED AUG 23 2017


NOTE: "FAIR" INDICATES FEW OR NO CLOUDS BELOW 12,000 FEET WITH NO
SIGNIFICANT WEATHER AND/OR OBSTRUCTIONS TO VISIBILITY. N/A MEANS
CURRENT SKY AND/OR WEATHER CONDITIONS ARE NOT AVAILABLE.

MNZ060>063-068>070-230700-
   Twin Cities Metro

CITY           SKY/WX    TMP DP  RH WIND       PRES   REMARKS
TWIN CITIES    CLEAR     61  48  62 W7        30.06R
6HR MIN TEMP:  61; 6HR MAX TEMP:  71;

ST PAUL        CLEAR     62  50  64 W7        30.05S
CRYSTAL        CLEAR     61  47  59 W7        30.04S
BLAINE         CLEAR     59  50  72 W6        30.05S
LAKEVILLE      CLEAR     55  50  82 W5        30.07S
EDEN PRAIRIE   CLEAR     61  50  67 W6        30.06R
6HR MIN TEMP:  61; 6HR MAX TEMP:  73;

SOUTH ST PAUL  CLEAR     59  50  71 CALM      30.05R
LAKE ELMO      FAIR      59  50  72 NW3       30.06R
$$
MNZ001>005-007-008-013>017-022>024-027-028-230700-
   Northwest Minnesota

CITY           SKY/WX    TMP DP  RH WIND       PRES   REMARKS
BEMIDJI        CLEAR     50  46  87 W5        30.06S
HALLOCK        CLEAR     48  46  93 CALM      30.08S
ROSEAU         CLEAR     54  48  82 NW3       30.07S
WARROAD        CLEAR     52  48  87 NW5       30.07S
CROOKSTON      CLEAR     48  45  87 CALM      30.09S
FOSSTON        CLEAR     45  41  87 CALM      30.09S
DETROIT LAKES  CLEAR     55  46  71 CALM      30.11S
MOORHEAD       CLEAR     55  46  71 CALM      30.10S
PARK RAPIDS    CLEAR     51  47  86 NW7       30.07S
MAHNOMEN       FAIR      52  46  79 W5        30.09S
$$
MNZ006-009>011-018-025>026-230700-
   North Central Minnesota

CITY           SKY/WX    TMP DP  RH WIND       PRES   REMARKS
BAUDETTE       MOCLDY    51  49  92 W5        30.05R
FLAG ISLAND    CLEAR     59  50  72 N5        30.04S
INTL FALLS     CLEAR     48  46  93 CALM      30.02S
6HR MIN TEMP:  47; 6HR MAX TEMP:  63;

WASKISH        CLEAR     55  52  88 NW6       30.06S
BIG FORK       CLEAR     52  48  87 CALM      30.04S
LONGVILLE      CLEAR     57  52  82 CALM      30.05S
GRAND RAPIDS   CLEAR     54  51  90 NW8       30.05S
CRANE LAKE     CLEAR     54  52  94 N5        30.02S
ORR            CLEAR     52  48  87 CALM      30.00S
COOK           CLEAR     50  48  93 CALM      30.02S
WALKER         FAIR      50  48  93 NW3       30.06S
$$
MNZ012-019>021-037-230700-
   Northeast Minnesota

CITY           SKY/WX    TMP DP  RH WIND       PRES   REMARKS
DULUTH         CLEAR     53  51  93 NW7       30.00S
6HR MIN TEMP:  53; 6HR MAX TEMP:  63;

ELY            CLEAR     52  50  93 NW5       30.00R
HIBBING        MOCLDY    51  48  89 NW5       30.02S
EVELETH        CLEAR     55  47  74 NW5       30.02S
DULUTH HARBOR  CLEAR     61  55  82 NW14      30.00S
TWO HARBORS    CLEAR     55  52  88 NW3       29.98R
SILVER BAY     CLEAR     55  54  94 NW5       29.96R
GRAND MARAIS     N/A     57  53  86 VRB7      29.92S
$$
MNZ029>031-032-039>041-046>048-054>057-064-230700-
   West Central Minnesota

CITY           SKY/WX    TMP DP  RH WIND       PRES   REMARKS
FERGUS FALLS   CLEAR     54  50  87 CALM      30.10S
WHEATON        CLOUDY    55  48  76 CALM      30.12S
MORRIS         PTCLDY    54  48  82 NW5       30.10S
ALEXANDRIA     CLEAR     56  50  80 W5        30.11S
ELBOW LAKE     FAIR      53  49  84 CALM      30.11S
WADENA         CLEAR     54  46  76 NW3       30.08S
GLENWOOD       CLEAR     54  48  82 W7        30.11S
APPLETON       CLEAR     54  48  82 SW5       30.10S
BENSON         PTCLDY    50  46  87 CALM      30.12S
ORTONVILLE     CLEAR     54  48  82 MISG      30.11S
MADISON        CLEAR     55  55 100 W6        30.12S
WILLMAR        FAIR      54  52  94 CALM      30.12S
$$
MNZ033>034-036-042>043-049>051-058-059-230700-
   Central Minnesota

CITY           SKY/WX    TMP DP  RH WIND       PRES   REMARKS
ST CLOUD       CLEAR     55  49  80 NW7       30.07R
6HR MIN TEMP:  55; 6HR MAX TEMP:  71;

SAUK CENTRE    FAIR      53  49  86 CALM      30.10S
PAYNESVILLE    CLEAR     49  48  95 W6        30.10S
AITKIN         CLEAR     46  45  93 CALM      30.04S FOG
PINE RIVER     CLEAR     52  46  82 CALM      30.09R
BRAINERD       CLEAR     54  49  83 CALM      30.06S
STAPLES        CLEAR     48  45  87 W3        30.08S
LONG PRAIRIE   FAIR      52  46  82 CALM      30.10R
LITTLE FALLS   CLEAR     52  45  76 CALM      30.07S
LITCHFIELD     CLEAR     61  54  77 W6        30.10S
BUFFALO        CLEAR     58  50  73 W6        30.08S
MAPLE LAKE     CLEAR     57  51  79 W3        30.08S
HUTCHINSON     CLEAR     53  52  95 W3        30.11S
$$
MNZ037-044-045-052-053-230700-
   East Central Minnesota

CITY           SKY/WX    TMP DP  RH WIND       PRES   REMARKS
PRINCETON      CLEAR     54  48  82 CALM      30.06S
MORA           CLEAR     52  45  76 CALM      30.07R
CAMBRIDGE      CLEAR     57  46  67 CALM      30.06R
RUSH CITY      MOCLDY    53  48  84 W3        30.05R
MOOSE LAKE     CLEAR     54  50  87 CALM      30.02R
HINCKLEY       FAIR      54  50  87 W3        30.05R
CLOQUET        CLEAR     54  48  82 W5        30.02S
MCGREGOR       CLEAR     54  50  87 NW3       30.04S
$$
MNZ071>073-080-081-089-090-097-098-230700-
   Southwest Minnesota

CITY           SKY/WX    TMP DP  RH WIND       PRES   REMARKS
MONTEVIDEO     CLEAR     55  48  76 W6        30.12S
GRANITE FALLS  CLEAR     54  52  94 SW6       30.13S
CANBY          CLEAR     55  50  81 CALM      30.14S
MARSHALL       CLEAR     54  50  86 W3        30.13F
REDWOOD FALLS  CLEAR     57  50  77 W8        30.11S
OLIVIA         CLEAR     54  50  87 CALM      30.11S
PIPESTONE      CLEAR     57  48  72 CALM      30.15F
WINDOM         CLEAR     54  50  87 SW3       30.14S
WORTHINGTON    CLEAR     52  49  89 SW6       30.16S
JACKSON        CLEAR     54  50  87 CALM      30.15S
TRACY          CLEAR     56  52  86 SW8       30.14S
SLAYTON        CLEAR     52  44  74 W3        30.16S
$$
MNZ065>067-074>077-082>085-091>093-230700-
   South Central Minnesota

CITY           SKY/WX    TMP DP  RH WIND       PRES   REMARKS
MANKATO        CLEAR     56  51  84 W8        30.10S
NEW ULM        CLEAR     54  50  87 W7        30.11S
ST JAMES       CLEAR     54  50  87 SW5       30.13S
FAIRMONT       CLEAR     54  51  90 W3        30.13S
GLENCOE        CLEAR     59  54  82 W7        30.09R
FARIBAULT      CLEAR     59  52  77 W7        30.08S
OWATONNA       CLEAR     54  50  87 CALM      30.09S
WASECA         CLEAR     52  50  93 W3        30.11S
ALBERT LEA     CLEAR     61  52  72 W5        30.11S
$$
MNZ078>079-086>088-094>096-230700-
   Southeast Minnesota

CITY           SKY/WX    TMP DP  RH WIND       PRES   REMARKS
ROCHESTER      CLEAR     53  49  86 W9        30.09R
6HR MIN TEMP:  52; 6HR MAX TEMP:  66;

RED WING       CLEAR     55  50  82 CALM      30.04S
STANTON        CLEAR     57  50  77 W5        30.06S
DODGE CENTER   CLEAR     52  48  87 W7        30.09R
WINONA         CLEAR     59  52  77 CALM      30.05S
AUSTIN         CLEAR     59  48  67 W7        30.09S
PRESTON        CLEAR     54  47  78 W9        30.09R
$$
ABBREVIATIONS USED IN REMARKS
   TC - TEMPERATURES IN CELSIUS
  WCI - WIND CHILL INDEX
   HX - HEAT INDEX
  VSB - VISIBILITY
$$




USA.gov is the U.S. government's official web portal to all federal, state and local government web resources and services.